Weather History for KP59 - October, 2013

Change the Weather History Date:

Tuesday, October 1, 2013

  Actual Average Record
Temperature  
Mean Temperature 64 °F -  
Max Temperature 72 °F 54 °F 72 °F (2000)
Min Temperature 57 °F 41 °F 35 °F (2003)
Growing Degree Days 14 (Base 50)    
Moisture  
Dew Point 47 °F    
Average Humidity 55    
Maximum Humidity 78    
Minimum Humidity 31    
Precipitation  
Precipitation 0.00 in - - ()
Sea Level Pressure  
Sea Level Pressure 29.63 in    
Wind  
Wind Speed 10 mph (West)    
Max Wind Speed 15 mph    
Max Gust Speed 30 mph    
Averages and records for this station are not official NWS values.
T = Trace of Precipitation, MM = Missing Value Source: NWS Daily Summary

Daily Weather History Graph

Daily Weather History Graph

Search for Another Location

Airport or City:

Trip Planner

Search our weather history database for the weather conditions in past years. The results will help you decide how hot, cold, wet, or windy it might be!

Date:

Astronomy

Oct. 01, 2013 Rise Set
Actual Time 7:50 AM EDT 7:30 PM EDT
Civil Twilight 7:20 AM EDT 8:00 PM EDT
Nautical Twilight 6:44 AM EDT 8:36 PM EDT
Astronomical Twilight 6:08 AM EDT 9:12 PM EDT
Moon 4:12 AM EDT (10/1) 5:43 PM EDT (10/1)
Length of Visible Light 12h 40m
Length of Day
11h 39m
Waning Crescent, 12% of the Moon is Illuminated
Oct 1
Waning Crescent
Oct 4
New
Oct 11
First Quarter
Oct 18
Full
Oct 26
Last Quarter

Hourly Weather History & Observations

Time (EDT) Temp. Dew Point Humidity Pressure Visibility Wind Dir Wind Speed Gust Speed Precip Events Conditions
12:51 AM 61.0 °F 48.9 °F 64% 29.67 in - WSW 8.1 mph 16.1 mph N/A   Unknown
1:51 AM 62.1 °F 48.0 °F 60% 29.66 in - WSW 9.2 mph 17.3 mph N/A   Unknown
2:51 AM 62.1 °F 48.0 °F 60% 29.65 in - WSW 11.5 mph 18.4 mph N/A   Unknown
3:51 AM 62.1 °F 48.9 °F 62% 29.64 in - WSW 11.5 mph 18.4 mph N/A   Unknown
4:51 AM 60.1 °F 51.1 °F 72% 29.62 in - WSW 9.2 mph 17.3 mph N/A   Unknown
5:51 AM 59.0 °F 51.1 °F 75% 29.62 in - WSW 10.4 mph - N/A   Unknown
6:51 AM 59.0 °F 51.1 °F 75% 29.61 in - WSW 9.2 mph - N/A   Unknown
7:51 AM 57.9 °F 51.1 °F 78% 29.60 in - WSW 8.1 mph - N/A   Unknown
8:51 AM 60.1 °F 52.0 °F 75% 29.57 in - WSW 8.1 mph - N/A   Unknown
9:51 AM 62.1 °F 51.1 °F 67% 29.56 in - WSW 11.5 mph 18.4 mph N/A   Unknown
10:51 AM 63.0 °F 52.0 °F 67% 29.55 in - SW 10.4 mph 17.3 mph N/A   Unknown
11:51 AM 66.9 °F 54.0 °F 63% 29.56 in - SW 4.6 mph - N/A   Unknown
12:51 PM 72.0 °F 53.1 °F 51% 29.56 in - WNW 9.2 mph 20.7 mph N/A   Unknown
1:51 PM 70.0 °F 53.1 °F 55% 29.58 in - NW 15.0 mph 26.5 mph N/A   Unknown
2:51 PM 69.1 °F 50.0 °F 51% 29.61 in - NW 11.5 mph 20.7 mph N/A   Unknown
3:51 PM 71.1 °F 44.1 °F 38% 29.62 in - WNW 9.2 mph 26.5 mph N/A   Unknown
4:51 PM 70.0 °F 42.1 °F 36% 29.64 in - NW 10.4 mph 26.5 mph N/A   Unknown
5:51 PM 70.0 °F 37.9 °F 31% 29.65 in - NW 11.5 mph 26.5 mph N/A   Unknown
6:51 PM 68.0 °F 36.0 °F 31% 29.67 in - NW 12.7 mph 26.5 mph N/A   Unknown
7:51 PM 66.9 °F 36.0 °F 32% 29.69 in - WNW 10.4 mph 21.9 mph N/A   Unknown
8:51 PM 66.9 °F 36.0 °F 32% 29.71 in - NW 11.5 mph 29.9 mph N/A   Unknown
9:51 PM 66.0 °F 37.0 °F 34% 29.73 in - NW 10.4 mph 25.3 mph N/A   Unknown